Wind_Speed
4 6 7 8 7 8 7 7 8 9 8 6 4 5 5 5 5 7 8 6 5 5 3 2 1 0 1 1 2 3 4 6 6 6 7 9 11 12 12 13 12 13 13 12 12 12 16 19 20
10 9 9 10 9 8 9 8 7 10 10 9 9 5 4 3 4 5 8 9 9 8 10 8 8 7 6 5 4 3 3 4 5 7 9 8 9 11 13 14 15 17 18 17 18 17 16 16 19
15 13 12 12 11 11 11 11 11 11 11 12 13 11 8 8 7 6 6 8 9 10 11 11 10 10 10 9 8 8 9 9 9 9 11 11 12 13 12 14 16 17 19 20 22 23 21 21 21
18 18 17 15 16 16 16 16 17 16 15 15 15 16 14 12 11 10 10 10 9 10 11 13 14 13 13 13 13 11 11 13 14 15 14 15 16 15 16 17 18 19 20 20 23 25 28 27 24
17 17 17 18 18 20 21 21 22 21 20 19 18 18 18 15 15 13 12 12 11 11 12 14 15 17 17 16 18 18 18 18 18 19 20 20 20 21 21 22 22 24 24 25 25 27 28 30 31
16 17 17 18 20 22 24 25 24 24 24 23 21 20 21 18 18 18 16 16 15 14 15 15 15 18 18 19 19 20 22 23 24 25 25 26 25 26 26 28 27 28 28 28 31 31 32 33 34
14 13 14 15 17 20 23 24 24 23 23 23 22 22 23 21 20 20 20 19 17 17 17 16 17 17 19 20 19 20 22 23 25 28 30 31 32 33 34 33 33 32 31 31 33 36 38 38 38
13 13 11 12 13 15 16 18 20 22 21 22 23 23 24 23 22 23 22 21 18 18 19 20 20 21 21 21 21 22 22 23 25 27 30 31 32 35 36 38 38 38 40 41 39 38 39 43 44
11 10 11 11 12 13 13 14 15 17 19 21 23 24 23 24 24 24 23 21 20 20 20 23 25 26 26 25 24 25 24 27 25 25 24 26 27 29 31 35 38 40 38 40 44 44 45 45 46
11 11 10 9 9 11 13 14 15 17 17 20 20 21 22 24 23 23 22 21 22 22 24 25 26 28 28 27 27 27 28 28 31 32 33 31 34 34 35 36 38 41 39 39 42 46 46 49 50
13 12 12 11 10 11 13 14 16 17 19 20 20 21 23 23 23 22 24 25 25 25 28 29 30 30 29 30 29 28 29 32 33 33 35 37 39 39 41 43 43 44 48 47 46 46 49 51 52
14 16 15 15 16 15 15 15 16 19 20 20 21 22 23 25 27 29 30 30 29 29 31 33 34 34 32 31 32 32 33 33 32 36 41 43 40 42 46 48 50 49 49 51 53 54 52 54 57
17 18 21 21 21 19 20 21 21 21 22 22 24 27 29 29 30 30 31 32 33 34 35 36 37 36 34 34 34 35 34 36 36 41 42 44 45 46 48 51 55 52 53 55 58 58 58 59 58
20 20 22 24 24 22 20 21 22 22 22 24 25 27 30 33 34 34 35 35 36 36 37 38 37 36 36 36 36 37 39 38 41 43 45 45 45 47 50 54 57 58 58 61 61 63 63 66 68
23 23 25 27 29 27 22 19 26 26 23 24 24 26 31 31 32 34 35 36 36 37 37 38 38 37 38 39 40 41 41 43 44 46 48 49 48 50 54 57 59 61 63 65 68 69 71 72 74
27 25 27 29 30 34 31 15 28 31 27 27 30 31 32 31 31 33 34 36 37 39 41 40 40 42 41 40 41 44 44 46 47 50 52 53 55 58 60 64 63 64 66 68 74 78 78 75 69
31 33 31 33 35 36 38 29 28 30 32 29 32 35 36 34 37 39 38 37 37 38 39 40 43 43 43 43 45 45 47 48 50 53 55 57 60 61 63 66 65 65 70 74 78 81 80 70 59
37 38 37 37 42 40 41 37 30 33 34 30 33 38 38 38 39 41 41 41 41 39 40 41 42 44 47 49 49 49 49 51 52 54 56 57 60 61 65 66 67 71 79 79 80 78 67 59 60
38 41 42 41 44 49 45 44 38 35 35 31 38 37 41 42 40 43 43 41 39 38 39 41 44 45 46 49 49 48 50 52 55 56 56 57 60 63 66 67 70 78 82 82 78 67 57 58 64
41 45 45 46 48 52 51 49 43 41 36 37 33 38 40 40 43 46 46 45 43 43 42 43 46 46 48 49 50 52 53 55 56 57 55 59 62 65 68 73 76 82 82 76 62 54 56 59 64
46 48 49 52 53 53 57 56 49 40 39 36 37 36 40 41 44 46 47 46 47 47 47 47 47 50 50 49 50 52 54 56 57 56 57 60 64 68 73 77 83 84 79 72 64 57 61 63 67
52 49 52 54 57 60 57 62 57 50 42 41 37 36 37 44 46 48 46 47 49 48 48 49 48 49 50 51 51 54 56 56 55 55 57 61 67 73 78 81 83 79 73 69 61 61 67 72 79
54 53 53 55 58 64 60 63 64 60 54 46 40 41 40 45 52 54 52 53 50 49 50 50 49 48 50 51 52 55 57 55 56 56 59 64 72 77 82 83 79 74 72 66 64 71 78 81 87
53 55 56 59 60 68 61 63 70 62 59 49 44 43 45 48 52 58 58 52 51 51 51 50 51 50 49 51 54 57 56 57 56 59 62 68 76 82 83 80 75 68 70 67 71 77 81 86 86
52 53 58 64 64 70 68 70 61 62 59 49 44 49 45 50 56 57 58 50 47 50 50 49 49 50 50 53 56 56 58 57 60 63 66 74 79 84 81 78 71 68 71 70 75 79 82 89 92
56 54 54 60 65 74 74 68 61 59 55 51 48 48 49 48 53 58 60 56 53 54 52 50 48 48 51 54 56 57 59 60 64 68 72 79 83 85 80 78 75 74 78 76 79 83 87 93 99
59 61 59 59 66 73 68 63 65 61 58 53 52 47 46 52 56 59 62 57 53 57 55 51 50 52 55 56 57 59 61 64 66 72 77 83 87 86 82 78 76 75 80 81 82 86 91 98 103
62 62 63 61 65 68 69 71 74 70 63 56 57 51 48 54 57 61 61 56 55 54 51 51 52 55 56 56 58 61 62 67 71 76 82 87 88 87 82 79 76 78 80 82 84 89 98 104 106
58 60 60 61 66 68 70 71 69 61 56 55 57 54 48 55 59 64 60 55 53 51 50 51 54 54 56 57 59 62 65 68 73 79 85 88 88 87 82 79 77 81 82 84 87 96 102 105 109
66 65 65 69 68 69 74 72 56 57 55 53 52 52 54 59 64 64 57 54 51 50 53 55 54 54 57 58 60 63 67 72 77 85 89 88 88 86 82 79 78 81 83 86 90 100 105 108 107
Wind_Direction
303 320 332 342 348 348 357 17 355 346 352 352 20 43 32 21 14 0 347 341 323 322 294 271 202 61 31 31 5 3 0 346 337 324 314 314 314 314 312 309 308 310 313 314 306 305 297 295 293
288 294 295 304 311 314 321 329 326 323 325 322 319 321 331 303 331 346 345 333 329 313 300 297 282 288 283 268 265 284 281 307 308 300 302 299 297 296 296 294 294 293 293 293 294 298 295 292 291
273 274 277 281 285 286 290 299 302 300 303 304 301 297 294 299 304 307 313 311 311 305 293 289 292 285 283 273 275 281 275 278 283 286 291 289 284 279 280 279 281 281 280 283 286 285 282 284 288
272 277 276 279 276 276 282 288 293 296 298 292 290 290 292 298 300 297 292 298 302 300 301 292 285 287 284 282 276 279 276 271 271 272 276 274 272 275 277 276 273 273 273 271 271 277 280 277 275
267 271 273 272 273 277 281 285 290 289 287 285 281 283 282 283 282 284 289 294 295 284 286 291 285 285 286 291 287 284 284 278 276 278 276 277 275 274 275 273 272 270 269 269 271 267 266 272 272
277 274 275 279 280 281 281 284 285 285 285 284 280 278 278 280 280 285 291 293 292 286 282 286 289 286 285 283 288 288 286 287 285 282 283 283 282 282 281 277 276 276 272 274 269 269 267 262 266
296 294 291 288 285 285 286 290 289 288 287 286 283 280 278 283 281 283 286 293 290 291 287 290 294 295 294 286 282 287 292 296 294 294 286 282 281 279 279 282 281 278 276 275 273 267 264 266 262
305 301 299 302 303 298 300 301 299 295 291 287 282 278 279 281 281 283 282 287 285 288 285 278 280 286 291 290 285 292 293 300 309 304 296 290 289 287 282 279 278 280 279 279 281 277 269 261 265
326 311 301 301 304 308 314 314 314 307 302 295 289 286 285 285 282 281 280 278 281 283 281 281 280 284 285 286 286 284 289 291 292 294 294 294 292 291 289 284 280 276 274 274 275 275 271 268 262
340 334 328 322 321 318 320 317 317 314 307 298 299 293 288 283 282 280 280 282 284 282 282 281 280 283 285 282 284 284 285 288 286 287 289 290 292 290 289 288 284 279 277 276 276 272 270 263 262
325 327 334 332 336 335 330 325 322 318 312 306 298 293 288 287 282 277 276 278 280 281 279 278 285 286 285 284 284 282 285 288 288 286 289 292 290 295 295 292 291 284 277 273 273 276 273 267 266
320 320 321 320 318 319 321 320 328 322 315 311 308 304 298 292 289 286 286 286 286 287 286 285 286 285 284 285 287 289 292 292 291 293 296 296 294 298 298 297 293 287 285 288 283 274 275 275 273
316 317 319 320 319 315 313 315 319 326 322 317 313 309 303 299 295 293 289 288 290 290 288 287 286 284 290 292 290 291 291 292 290 294 294 293 293 294 296 295 294 290 285 284 280 280 280 276 273
304 309 312 314 315 315 310 315 311 320 317 314 312 308 305 302 297 291 288 288 286 286 290 291 289 290 293 294 293 290 289 285 288 292 293 293 295 297 297 294 291 288 282 281 281 280 277 275 274
298 302 305 309 309 307 305 320 307 305 308 307 309 314 311 304 298 295 291 286 287 290 292 293 292 291 292 292 289 286 285 286 288 293 295 297 297 299 299 296 293 288 284 281 280 280 280 279 278
295 297 300 304 307 302 301 318 304 301 303 306 305 311 312 309 310 304 300 297 294 292 292 290 289 290 288 287 287 287 286 287 290 294 294 295 297 302 302 300 294 288 284 285 285 286 288 293 292
292 296 299 301 302 302 303 307 297 299 301 304 304 308 309 304 306 306 304 300 297 295 294 291 290 290 289 288 290 288 285 288 291 294 296 297 301 301 300 297 291 287 287 288 287 289 293 294 285
292 293 296 301 298 299 300 305 308 301 300 302 300 305 305 308 308 306 307 306 302 296 292 291 289 289 288 288 288 288 287 289 293 297 298 301 302 302 299 296 291 288 290 293 295 297 297 288 273
290 292 296 298 299 299 301 302 307 307 303 300 303 303 306 307 306 307 307 305 305 299 297 293 288 288 288 288 288 286 287 293 298 297 300 302 301 299 295 291 291 292 296 300 302 302 292 282 277
290 293 297 296 298 298 300 301 302 307 309 301 297 299 307 302 301 303 303 302 306 305 299 294 293 291 291 288 287 286 290 296 296 297 300 302 298 295 293 295 296 298 303 305 303 292 282 283 284
289 293 294 296 296 297 299 300 299 302 304 300 295 294 303 302 301 299 300 300 299 298 297 293 290 289 288 286 287 288 293 295 296 297 298 300 297 296 296 295 299 304 305 305 303 294 289 289 292
287 291 292 295 295 297 299 300 299 303 307 307 302 298 298 296 294 297 297 300 297 299 296 295 292 287 284 285 286 291 295 295 295 297 298 298 298 297 297 298 302 305 306 306 300 295 295 299 300
286 289 290 291 292 294 296 297 299 305 309 312 305 304 304 298 297 299 298 303 306 301 297 293 293 286 282 284 289 295 295 295 294 296 298 299 300 301 301 303 304 305 307 304 302 300 300 297 296
285 287 289 290 291 289 298 296 295 306 308 308 312 307 306 299 299 299 299 300 303 299 300 295 291 287 286 289 295 296 295 294 295 297 298 301 303 304 304 303 303 304 304 302 299 297 300 300 300
283 286 287 287 290 291 296 295 298 302 302 305 309 304 308 299 298 297 297 298 303 304 303 298 291 287 288 294 296 297 296 294 297 298 298 302 305 305 304 302 301 303 300 299 298 301 302 305 302
281 281 282 287 290 293 293 293 299 296 298 306 308 312 309 301 297 295 297 302 301 307 305 300 292 288 293 297 297 298 297 294 296 298 299 303 304 304 302 301 301 300 299 297 299 303 306 308 304
280 281 284 283 286 288 289 294 295 293 299 309 310 312 311 302 298 297 297 305 304 302 300 294 293 295 298 298 297 297 295 294 298 300 302 302 303 303 301 300 301 300 302 299 301 304 308 309 307
280 282 282 284 285 285 290 294 291 296 308 310 307 311 308 298 296 294 296 306 302 301 297 296 296 297 297 295 296 296 294 297 300 301 301 302 301 300 299 301 302 302 304 304 306 306 307 311 309
278 275 279 280 279 285 291 288 294 306 312 305 301 311 302 295 294 293 299 302 299 297 294 295 295 295 294 294 295 295 296 298 299 298 298 299 299 300 301 303 305 305 305 307 309 309 311 312 311
273 278 281 282 288 286 282 285 302 308 303 304 300 305 300 292 291 293 296 296 296 293 293 295 294 293 293 295 296 296 297 297 298 300 301 301 302 301 303 306 306 307 307 309 309 312 313 314 314
Height
5888 5888 5887 5887 5889 5886 5884 5885 5881 5880 5879 5878 5876 5875 5874 5872 5872 5873 5871 5871 5871 5870 5870 5870 5869 5868 5867 5866 5866 5865 5865 5864 5863 5863 5862 5861 5861 5861 5861 5861 5863 5863 5862 5862 5862 5862 5862 5862 5863
5886 5886 5886 5885 5885 5884 5883 5882 5881 5879 5878 5877 5876 5874 5873 5872 5871 5870 5870 5870 5869 5869 5869 5869 5868 5867 5866 5865 5864 5863 5863 5862 5861 5861 5861 5860 5860 5859 5858 5858 5858 5859 5859 5859 5859 5859 5859 5859 5859
5884 5883 5884 5883 5882 5881 5881 5880 5879 5878 5877 5876 5874 5873 5872 5871 5870 5870 5870 5869 5868 5868 5867 5866 5865 5864 5863 5862 5861 5861 5860 5859 5859 5858 5858 5857 5857 5856 5856 5855 5854 5855 5855 5854 5855 5854 5855 5855 5856
5881 5882 5882 5881 5879 5879 5878 5878 5877 5876 5875 5874 5872 5871 5870 5869 5868 5868 5867 5867 5866 5865 5865 5863 5862 5861 5861 5860 5859 5858 5857 5856 5855 5855 5855 5854 5852 5852 5851 5851 5852 5851 5850 5849 5849 5850 5850 5849 5849
5878 5878 5878 5877 5876 5876 5875 5875 5874 5872 5871 5870 5869 5868 5867 5867 5866 5865 5864 5864 5863 5862 5861 5860 5859 5857 5857 5856 5856 5855 5854 5853 5853 5852 5850 5849 5848 5848 5847 5847 5846 5846 5846 5845 5843 5843 5843 5843 5843
5876 5876 5875 5874 5873 5872 5871 5870 5869 5868 5867 5866 5865 5864 5863 5863 5862 5861 5860 5859 5858 5858 5857 5856 5856 5855 5854 5853 5852 5851 5851 5849 5848 5847 5846 5845 5844 5843 5842 5841 5841 5839 5838 5838 5838 5838 5837 5837 5837
5872 5873 5872 5871 5870 5868 5867 5865 5864 5863 5861 5860 5860 5859 5858 5858 5857 5857 5856 5855 5855 5854 5853 5853 5853 5851 5850 5849 5848 5846 5845 5844 5843 5841 5840 5840 5839 5839 5837 5836 5835 5835 5833 5833 5832 5831 5830 5830 5830
5870 5870 5869 5868 5866 5864 5863 5862 5860 5859 5858 5856 5854 5854 5853 5852 5852 5852 5851 5851 5850 5849 5849 5848 5847 5845 5844 5842 5842 5842 5840 5839 5838 5836 5835 5834 5832 5831 5830 5829 5828 5827 5826 5825 5823 5823 5823 5823 5822
5868 5868 5867 5865 5864 5861 5859 5858 5856 5855 5854 5852 5851 5850 5849 5848 5847 5846 5846 5845 5844 5843 5842 5841 5840 5839 5839 5837 5836 5834 5833 5832 5831 5830 5828 5826 5824 5823 5822 5820 5820 5818 5817 5816 5815 5814 5812 5811 5812
5867 5866 5864 5862 5860 5859 5857 5854 5853 5852 5850 5848 5847 5845 5843 5842 5841 5841 5840 5840 5839 5838 5837 5835 5834 5833 5832 5831 5828 5827 5825 5824 5823 5822 5820 5818 5816 5814 5813 5811 5810 5808 5807 5806 5804 5803 5802 5802 5801
5866 5863 5862 5861 5858 5856 5853 5851 5849 5848 5846 5844 5842 5841 5839 5838 5836 5835 5833 5833 5832 5831 5829 5828 5827 5826 5824 5822 5820 5818 5816 5815 5813 5813 5811 5810 5808 5805 5804 5802 5799 5797 5795 5793 5792 5790 5789 5788 5788
5864 5861 5859 5857 5856 5853 5851 5849 5847 5844 5841 5839 5837 5836 5834 5832 5831 5830 5828 5827 5825 5824 5823 5821 5820 5817 5815 5813 5811 5809 5807 5806 5804 5802 5801 5799 5797 5795 5793 5792 5789 5786 5784 5780 5777 5776 5776 5775 5773
5860 5858 5856 5854 5852 5850 5847 5845 5843 5841 5838 5835 5832 5830 5829 5827 5825 5823 5821 5820 5819 5817 5815 5813 5811 5809 5807 5805 5802 5800 5799 5796 5794 5792 5790 5788 5786 5784 5782 5780 5777 5772 5769 5766 5763 5761 5759 5758 5758
5856 5853 5851 5849 5847 5846 5843 5841 5838 5837 5834 5832 5830 5827 5824 5821 5818 5816 5814 5813 5812 5810 5808 5805 5802 5800 5798 5795 5793 5790 5788 5786 5784 5782 5780 5777 5775 5772 5770 5766 5763 5759 5754 5750 5748 5745 5744 5742 5741
5851 5849 5846 5843 5841 5839 5839 5838 5833 5832 5831 5828 5825 5822 5819 5815 5812 5809 5807 5805 5803 5801 5798 5795 5792 5790 5788 5786 5783 5780 5778 5776 5774 5772 5769 5766 5762 5759 5757 5753 5748 5743 5738 5734 5731 5729 5727 5724 5722
5847 5845 5841 5838 5835 5831 5831 5837 5828 5824 5824 5821 5818 5815 5812 5808 5805 5801 5799 5796 5794 5791 5789 5786 5783 5781 5779 5776 5774 5772 5768 5765 5763 5760 5757 5753 5750 5747 5742 5737 5731 5726 5720 5717 5713 5709 5705 5702 5700
5841 5838 5837 5833 5828 5824 5822 5827 5826 5821 5817 5816 5811 5807 5804 5800 5796 5792 5790 5787 5786 5783 5780 5777 5774 5772 5769 5767 5764 5760 5757 5754 5751 5747 5743 5739 5734 5731 5727 5722 5716 5711 5704 5699 5694 5689 5685 5683 5680
5833 5830 5829 5827 5820 5817 5814 5815 5819 5815 5811 5810 5805 5800 5796 5792 5788 5783 5780 5778 5776 5773 5770 5767 5763 5761 5758 5755 5751 5748 5745 5742 5738 5733 5729 5723 5719 5715 5710 5704 5698 5693 5686 5681 5675 5670 5666 5663 5660
5824 5821 5819 5819 5813 5804 5806 5804 5807 5809 5805 5802 5798 5792 5787 5783 5779 5774 5771 5768 5765 5762 5759 5755 5752 5749 5746 5743 5739 5736 5731 5727 5722 5717 5712 5707 5703 5699 5692 5686 5681 5674 5669 5663 5655 5649 5647 5643 5637
5814 5811 5811 5807 5803 5796 5793 5792 5797 5796 5797 5792 5789 5784 5779 5774 5769 5765 5760 5757 5754 5751 5748 5744 5741 5738 5734 5731 5727 5723 5718 5713 5708 5702 5696 5691 5685 5680 5675 5669 5661 5653 5648 5638 5633 5629 5628 5624 5617
5804 5802 5798 5794 5791 5788 5780 5774 5781 5790 5787 5785 5780 5775 5771 5765 5760 5754 5750 5747 5743 5741 5737 5733 5729 5727 5722 5718 5714 5710 5706 5700 5693 5686 5679 5674 5668 5661 5656 5648 5641 5633 5625 5620 5614 5609 5605 5602 5597
5791 5792 5787 5783 5777 5771 5772 5751 5759 5769 5776 5772 5768 5766 5763 5756 5750 5746 5741 5737 5733 5729 5725 5720 5716 5713 5709 5705 5701 5697 5692 5686 5678 5673 5665 5658 5651 5644 5637 5630 5621 5613 5605 5600 5594 5590 5584 5577 5573
5782 5780 5777 5772 5767 5758 5761 5753 5743 5751 5757 5762 5756 5752 5749 5743 5735 5730 5728 5724 5720 5716 5711 5706 5703 5697 5694 5690 5686 5681 5675 5670 5663 5657 5651 5644 5635 5626 5618 5611 5603 5594 5586 5580 5573 5567 5560 5553 5547
5773 5768 5764 5759 5756 5742 5751 5745 5728 5740 5740 5743 5742 5738 5736 5729 5722 5716 5712 5710 5706 5701 5695 5691 5687 5682 5678 5674 5670 5665 5660 5655 5649 5642 5636 5629 5618 5608 5598 5590 5582 5574 5568 5559 5553 5544 5535 5526 5518
5762 5758 5750 5743 5741 5733 5733 5726 5726 5728 5726 5730 5729 5724 5722 5715 5708 5700 5694 5696 5694 5687 5682 5677 5672 5668 5665 5662 5657 5652 5646 5639 5634 5627 5620 5611 5601 5590 5582 5574 5564 5554 5546 5537 5530 5521 5510 5499 5487
5747 5746 5743 5734 5728 5720 5720 5710 5713 5711 5712 5715 5714 5712 5707 5700 5694 5687 5681 5680 5678 5672 5667 5662 5658 5655 5652 5648 5642 5636 5630 5624 5618 5611 5602 5592 5583 5574 5564 5555 5545 5535 5525 5516 5505 5496 5485 5472 5456
5733 5730 5729 5721 5719 5713 5707 5703 5697 5697 5701 5704 5699 5696 5693 5685 5678 5672 5666 5667 5663 5658 5653 5648 5645 5641 5637 5632 5626 5619 5613 5608 5602 5594 5584 5573 5562 5553 5544 5534 5526 5514 5503 5494 5485 5472 5459 5445 5425
5720 5719 5712 5711 5705 5695 5692 5688 5679 5685 5692 5690 5682 5681 5679 5670 5664 5657 5652 5651 5646 5643 5638 5634 5631 5626 5621 5615 5610 5604 5598 5593 5585 5576 5565 5553 5540 5530 5521 5512 5503 5494 5483 5473 5462 5449 5434 5416 5395
5704 5699 5699 5696 5689 5685 5684 5666 5667 5678 5678 5675 5670 5669 5663 5653 5648 5639 5638 5635 5631 5628 5624 5620 5616 5610 5605 5599 5594 5588 5581 5573 5563 5553 5542 5530 5520 5510 5501 5493 5485 5475 5464 5451 5439 5423 5407 5387 5365
5681 5684 5685 5677 5676 5668 5660 5641 5675 5671 5667 5666 5658 5655 5646 5637 5630 5625 5625 5622 5618 5614 5609 5605 5601 5595 5590 5584 5578 5571 5563 5554 5545 5535 5524 5513 5502 5491 5482 5476 5466 5454 5443 5430 5415 5399 5379 5358 5339